Theta_e
306 306 306 306 306 307 308 309 309 309 309 310 311 311 311 312 313 319 323 322 321 320 318 317 320 321 321 317 318 319 314 325 330 330 328 327 330 335 338 337 339 337 338 340 342
307 307 308 308 308 309 309 309 309 309 310 310 311 311 312 313 314 321 322 325 319 317 317 319 320 321 318 319 318 316 318 332 330 327 321 321 327 334 336 340 345 345 341 342 341
308 308 308 309 309 309 309 309 309 309 310 310 311 312 313 313 322 324 325 318 317 317 317 319 321 321 319 319 318 318 322 330 330 324 322 322 322 325 328 328 340 345 340 339 342
307 308 308 308 309 309 309 309 309 309 310 311 312 313 313 317 327 322 316 316 318 318 318 320 320 320 320 319 322 322 324 327 325 323 324 322 324 324 324 331 338 338 336 337 339
308 308 308 308 308 308 309 309 310 312 312 312 313 313 314 324 323 318 317 319 319 318 319 319 320 320 321 321 322 325 323 326 324 324 324 324 323 324 324 333 341 341 336 335 335
312 311 310 310 311 311 312 312 313 313 313 313 313 313 321 325 322 318 319 320 319 321 322 321 320 319 321 320 321 322 324 324 324 324 325 325 324 322 326 335 344 337 337 335 337
310 311 313 313 313 313 313 314 315 315 315 314 314 314 321 321 324 322 322 322 321 321 319 322 322 319 318 319 321 322 323 322 323 323 325 324 322 327 327 345 343 342 340 339 333
309 310 311 313 314 314 315 315 315 315 315 315 314 315 322 326 322 322 322 321 322 322 322 322 322 319 319 319 320 320 321 320 322 324 324 323 322 328 326 348 347 346 345 341 336
309 310 310 312 313 314 315 315 315 315 315 314 314 318 326 324 322 321 322 322 323 322 322 321 321 317 317 319 318 319 318 320 325 323 325 323 324 328 328 349 345 341 341 340 338
310 310 311 312 314 315 317 319 320 321 320 319 320 322 324 324 323 321 321 322 321 320 321 320 319 319 318 318 319 322 323 324 325 325 325 325 325 323 329 346 343 338 339 338 338
310 310 311 313 315 316 318 325 326 326 325 325 327 326 325 322 322 322 321 321 320 321 321 322 321 323 324 323 323 323 324 326 327 324 326 326 325 330 347 347 343 341 338 337 335
310 310 311 313 315 317 316 324 327 326 325 327 325 327 325 324 324 324 323 322 322 323 324 323 324 324 324 325 325 328 327 327 326 326 323 323 328 338 337 335 337 339 339 336 334
312 310 311 312 315 317 319 326 326 327 326 329 328 324 323 323 324 323 322 322 323 324 325 325 324 325 325 324 326 326 326 326 326 326 324 325 335 338 336 341 337 336 335 334 333
312 310 311 312 318 321 324 327 326 326 331 332 324 325 324 323 324 324 324 323 324 326 324 326 325 324 325 327 326 326 326 327 327 324 323 324 327 337 343 341 337 332 329 328 327
312 311 312 312 313 319 324 324 325 327 347 324 323 325 323 323 324 324 324 324 326 326 325 328 326 325 326 326 326 326 325 323 324 322 321 324 334 339 343 343 337 332 327 323 319
312 311 313 320 321 323 324 323 325 332 342 329 326 325 323 323 325 324 325 325 325 326 327 328 327 327 328 329 327 325 323 324 323 322 326 329 335 348 347 340 335 329 325 320 317
312 311 314 314 322 323 324 325 331 333 335 331 324 323 323 324 325 325 326 327 327 328 330 331 332 331 331 331 326 325 323 324 326 327 327 327 346 344 339 336 331 326 320 318 318
312 312 317 321 321 324 325 329 335 333 332 329 327 325 325 326 326 327 325 327 330 329 328 332 337 332 331 329 327 325 326 325 331 331 328 326 344 341 333 328 325 321 319 318 318
313 318 322 327 323 325 328 334 333 333 330 329 328 325 326 327 327 328 327 333 330 329 330 329 333 329 328 327 325 327 327 323 329 327 324 339 341 336 333 330 326 322 319 317 316
319 322 325 323 324 325 330 332 332 329 327 328 329 332 334 331 333 331 333 333 333 331 328 330 331 330 327 324 324 328 326 325 325 330 329 332 338 340 338 332 326 321 319 318 317
326 329 326 324 325 327 330 332 328 325 324 327 329 331 332 332 333 334 335 333 331 329 330 331 331 331 326 325 327 327 329 327 327 329 328 329 338 333 331 328 327 322 320 318 317
325 332 325 322 326 327 328 328 323 326 323 325 327 328 329 333 334 333 335 334 328 330 332 329 330 331 326 324 327 327 331 329 329 329 325 325 332 329 329 328 325 323 320 319 316
324 329 323 321 331 334 332 325 324 324 325 326 328 328 331 331 332 331 332 329 331 332 330 329 330 331 331 327 326 326 326 329 329 326 331 333 337 325 326 327 325 322 321 320 316
325 329 330 328 328 331 330 330 325 324 323 323 325 326 327 328 328 332 333 330 329 327 333 333 332 333 331 328 325 326 325 329 329 331 334 335 332 329 328 328 325 322 317 316 315
327 329 329 325 328 330 329 328 328 327 325 326 326 328 329 333 335 334 333 332 332 333 332 330 335 330 325 324 323 324 331 331 334 334 335 331 329 326 325 325 322 319 316 315 313
324 324 323 323 328 327 326 327 328 328 326 328 331 332 333 333 332 332 331 332 332 332 331 330 329 330 328 326 329 331 331 333 331 331 330 327 326 323 323 321 318 316 314 312 310
321 319 324 325 324 326 324 329 328 327 326 325 331 334 331 330 327 325 325 326 326 327 331 330 332 331 332 333 331 333 332 330 329 327 325 326 325 323 323 318 314 313 312 311 310
Wind_Speed
5 5 5 5 5 6 6 7 9 10 11 12 13 16 20 24 28 10 5 7 8 9 11 14 18 25 26 8 9 4 1 7 6 3 6 7 4 2 4 12 7 13 8 21 4
4 4 5 5 6 6 7 8 10 11 11 12 14 17 20 23 25 12 14 14 9 9 9 14 13 17 6 7 5 5 4 7 8 7 5 7 2 5 4 10 6 12 16 26 13
4 5 6 6 6 8 8 9 10 11 11 13 15 18 20 23 5 5 9 11 7 7 12 18 24 13 8 5 8 8 7 8 5 5 10 9 13 5 3 2 16 18 20 18 24
6 7 7 7 8 9 10 10 11 11 12 13 16 19 21 5 3 2 5 6 6 11 12 12 9 7 6 7 7 4 8 3 2 5 4 7 6 9 8 1 26 31 35 30 10
7 8 8 9 10 10 10 11 11 12 12 13 15 18 10 3 8 4 6 5 8 12 15 9 9 11 4 7 5 3 7 1 2 1 1 6 9 5 9 6 28 29 20 16 14
9 8 9 9 10 10 11 11 11 12 12 13 13 15 4 5 9 8 6 6 12 14 22 16 5 10 6 8 5 5 7 9 4 1 2 3 7 9 6 33 22 27 22 20 17
11 9 9 10 11 11 11 12 12 12 13 13 12 11 5 12 6 8 5 15 17 19 7 18 19 10 10 11 9 6 5 9 10 5 3 4 10 9 8 32 31 25 21 18 14
13 11 10 10 11 12 13 13 14 14 14 12 11 4 7 14 5 9 10 17 17 12 17 10 15 7 5 8 10 8 5 5 13 6 2 6 6 6 11 33 26 25 20 20 14
16 13 11 10 10 11 12 12 12 13 12 10 6 5 8 5 4 12 11 17 11 15 15 11 3 6 9 6 7 6 8 7 5 7 3 7 5 4 13 32 26 23 20 17 13
17 15 12 11 10 10 10 9 7 7 5 3 8 6 8 4 5 1 7 8 5 10 8 6 3 3 5 2 5 6 2 6 6 5 7 6 6 8 9 31 23 23 21 18 13
19 16 12 11 11 10 10 6 3 2 5 8 5 4 7 7 6 9 11 11 10 7 8 9 4 5 3 5 7 7 9 8 5 5 3 4 5 18 27 25 23 21 21 21 14
21 17 11 10 13 14 9 3 8 10 6 15 19 15 12 9 5 6 8 5 5 9 9 6 6 3 7 5 4 10 10 8 9 10 8 8 8 25 21 16 20 18 17 20 14
22 17 11 10 12 17 8 15 12 11 2 11 14 10 6 7 12 7 7 9 8 8 6 6 4 5 4 7 6 8 9 9 8 9 8 5 10 14 10 21 22 20 19 18 15
22 17 12 10 9 11 12 16 8 9 2 5 4 4 5 4 3 3 5 5 8 6 6 1 5 3 6 10 9 6 7 7 9 8 6 1 4 9 8 20 19 16 15 14 14
22 16 11 9 13 7 13 12 11 2 3 9 7 7 6 7 7 3 3 6 7 6 4 5 9 10 9 6 5 4 9 8 8 11 8 18 6 4 6 10 12 13 13 10 11
21 14 9 5 10 14 20 16 12 3 3 3 6 7 6 9 4 6 5 4 4 5 7 3 7 6 4 8 12 10 13 12 7 4 4 5 4 3 2 4 7 11 9 10 11
19 11 8 7 4 18 15 9 1 3 1 3 7 9 10 7 4 4 1 3 1 4 5 9 10 5 9 11 11 9 6 4 6 5 5 7 9 5 12 14 12 10 9 7 5
19 9 7 11 8 16 15 4 3 7 11 4 5 3 3 8 4 6 2 4 9 9 6 4 4 4 6 2 4 5 4 4 3 4 9 12 4 5 13 16 14 11 8 6 5
18 7 7 6 4 8 4 1 3 4 9 11 10 2 6 2 4 1 3 6 7 8 4 5 1 9 10 6 5 1 2 5 2 4 4 4 5 6 12 13 15 10 9 7 6
16 7 8 2 1 7 2 4 3 6 9 8 6 10 8 3 6 5 7 5 3 8 7 6 3 7 11 8 10 2 3 5 4 3 4 3 6 5 8 9 9 6 7 7 5
6 3 3 2 4 3 2 5 6 10 7 7 7 7 10 8 8 3 5 7 9 7 9 6 5 7 7 6 6 6 5 4 2 3 3 1 4 7 11 8 6 4 6 6 5
10 3 5 2 2 3 3 1 4 6 6 3 4 4 5 7 7 4 5 4 5 5 3 5 2 2 6 8 7 4 2 2 3 4 2 3 3 5 4 5 5 4 6 5 6
5 3 3 2 2 4 8 2 4 7 8 8 7 7 8 7 5 6 7 12 12 7 4 5 4 4 8 8 11 7 7 6 1 5 6 6 2 2 3 4 1 2 2 4 6
3 3 4 3 3 5 6 8 5 4 3 2 6 8 6 4 8 4 8 8 9 5 7 6 4 2 2 6 8 12 9 13 6 4 1 3 9 3 3 4 4 5 7 5 3
1 3 4 4 6 8 8 8 9 4 4 7 2 7 3 6 5 8 3 5 8 6 3 5 1 6 8 9 12 12 13 13 9 3 2 6 3 4 5 8 8 10 6 8 8
4 4 5 5 5 6 5 5 8 8 4 6 7 15 15 8 6 7 6 6 2 3 3 3 3 6 6 9 11 13 14 11 13 11 11 9 3 6 3 11 9 8 11 10 7
10 10 2 6 6 3 5 5 6 6 5 4 11 8 11 11 7 5 2 3 4 3 3 2 3 4 4 9 9 10 5 12 15 9 5 5 2 2 9 11 10 10 9 6 7
Wind_Direction
307 302 299 293 290 284 293 296 301 301 306 314 317 318 319 323 322 305 254 260 228 265 294 297 289 268 257 242 251 227 44 263 260 341 191 209 136 235 130 125 141 154 131 51 174
318 319 311 297 292 293 291 295 296 300 308 313 316 316 321 328 326 272 251 259 250 269 284 283 294 293 219 234 248 154 137 299 261 319 2 356 32 189 141 111 91 120 70 89 300
325 314 299 294 293 290 291 294 297 305 309 313 313 317 325 327 309 228 210 233 237 250 268 287 289 292 290 278 240 225 202 245 324 12 14 345 326 259 48 5 159 121 110 106 244
316 298 293 295 291 293 296 299 300 303 307 311 314 323 329 320 330 219 200 193 224 257 271 284 286 293 259 267 261 263 267 225 330 46 347 320 314 351 21 153 127 130 147 157 129
318 309 305 296 296 296 295 295 297 302 305 309 318 330 340 262 248 215 164 186 246 267 256 246 268 273 267 305 272 311 297 287 122 302 232 355 324 342 324 101 130 125 94 100 137
336 320 302 297 293 291 291 294 298 300 302 307 322 333 306 272 180 152 178 219 253 252 266 266 262 329 314 327 8 319 307 322 319 107 343 61 313 359 360 73 119 93 90 94 77
350 322 303 293 289 290 291 294 295 295 296 302 319 334 275 247 270 162 172 235 257 263 301 327 344 8 324 330 317 309 344 308 288 249 113 81 341 37 65 82 81 89 103 86 85
356 338 313 298 294 294 294 293 291 289 287 294 303 311 253 287 248 214 226 241 257 243 256 277 301 337 312 292 319 309 295 280 269 147 180 100 297 42 70 91 89 85 85 92 93
359 347 330 313 307 304 303 298 293 285 282 285 292 195 269 254 203 224 235 258 298 242 259 257 261 236 298 298 315 299 258 249 278 100 101 68 337 85 80 104 97 93 91 83 69
359 351 338 323 317 319 323 312 300 300 290 277 265 301 269 224 166 126 236 272 294 283 293 222 195 219 309 47 241 317 282 19 79 35 51 22 343 320 93 94 97 95 93 87 72
359 352 340 321 313 320 324 332 333 308 238 220 207 256 308 127 160 220 208 213 238 270 268 265 170 266 246 29 348 339 344 33 108 38 62 8 317 15 92 92 95 95 102 104 86
357 351 340 314 308 310 306 257 290 274 300 235 249 264 292 308 230 186 199 234 238 245 260 300 127 51 354 326 343 30 34 359 347 2 21 346 51 60 61 75 81 81 85 91 97
355 349 339 319 307 302 275 260 302 359 288 292 214 229 209 249 265 171 179 259 262 287 299 65 95 44 301 333 58 49 28 2 339 327 333 322 64 65 65 74 61 55 72 74 86
352 345 336 327 310 314 275 281 354 2 326 239 147 247 157 242 290 35 317 296 316 307 1 21 107 63 10 47 42 8 356 339 325 353 300 44 270 54 70 67 65 63 58 62 70
349 339 329 320 306 306 321 335 339 357 330 165 166 152 190 212 152 162 306 322 307 346 12 296 47 2 38 27 11 328 25 356 321 306 287 276 92 191 100 76 76 75 60 65 70
346 335 323 335 310 287 309 325 311 6 266 187 139 176 244 232 199 156 208 225 270 324 308 343 65 30 44 1 32 16 3 336 331 300 16 7 93 37 5 104 82 70 59 63 63
343 327 299 300 262 334 335 323 38 226 193 211 169 164 212 211 168 151 140 308 86 20 348 42 34 22 31 351 12 3 2 343 10 353 250 353 64 82 56 71 91 93 76 70 73
341 311 285 268 295 328 323 6 248 305 350 13 17 331 261 158 180 124 176 309 53 47 359 33 46 304 176 92 251 293 81 128 278 277 280 321 58 87 87 86 83 104 135 136 125
344 333 280 271 333 314 35 305 261 45 7 359 344 183 299 77 48 59 185 64 46 52 49 3 261 4 26 342 322 325 20 269 191 302 29 128 90 115 115 121 130 161 160 132 143
342 324 272 201 307 302 47 251 261 52 23 350 346 6 357 8 23 335 43 2 90 66 41 324 344 30 360 340 351 2 336 19 2 334 312 83 83 357 122 121 129 139 126 98 99
350 330 120 15 203 33 223 266 30 64 33 5 357 341 345 9 354 40 58 36 27 39 52 26 65 324 2 351 11 1 22 30 69 1 242 335 82 50 83 93 107 77 96 133 116
339 338 99 317 47 219 236 76 298 27 17 340 335 322 321 18 360 34 96 69 11 33 69 330 126 4 301 315 53 30 233 337 144 255 255 137 89 358 37 103 119 169 182 157 93
331 275 131 70 5 339 326 83 81 17 8 18 343 5 12 10 3 15 106 55 38 44 28 322 6 12 341 347 359 345 327 357 9 32 55 347 96 71 59 115 104 199 101 52 62
311 333 351 15 352 354 345 8 102 110 302 29 323 326 339 326 308 341 88 68 63 52 341 47 14 64 266 293 319 323 327 66 76 76 343 346 97 85 212 136 208 153 128 153 75
278 359 343 330 356 349 4 356 333 356 56 6 324 337 338 24 43 25 62 64 36 336 68 93 357 339 319 312 308 323 50 51 75 204 67 145 126 216 206 207 205 144 153 83 55
30 8 343 289 299 333 313 314 305 2 45 20 23 18 53 58 64 47 59 55 165 251 50 34 296 315 310 309 334 66 35 102 58 67 117 136 160 235 305 59 64 58 59 61 43
360 339 325 284 313 284 255 272 60 59 8 33 52 35 41 0 348 358 338 286 200 183 104 83 6 346 296 334 320 48 11 87 84 60 101 61 190 211 86 68 57 57 49 47 41